Regional Weather Roundup
Issued by NWS

Home | Current Version | Previous Version | Graphics & Text | Print | Product List | Glossary On
Versions: 1 2 3 4 5 6 7 8 9 10 11 12 13 14 15 16 17 18 19 20 21 22 23 24 25 26 27 28 29 30 31 32 33 34 35 36 37 38 39 40 41 42 43 44 45 46 47 48 49 50
000
ASUS45 KCYS 022110
RWRWY

WYOMING REGIONAL WEATHER ROUNDUP
NATIONAL WEATHER SERVICE CHEYENNE WY
200 PM MST FRI DEC 02 2016

NOTE:  "FAIR" INDICATES FEW OR NO CLOUDS BELOW 12,000 FEET
WITH NO SIGNIFICANT WEATHER AND/OR OBSTRUCTIONS TO VISIBILITY.

WYZ001-022200-
YELLOWSTONE NATIONAL PARK

CITY           SKY/WX    TMP DP  RH WIND       PRES   REMARKS
LK YELLOWSTONE   N/A     21   8  57 VRB3      30.12F
W YELLOWSTONE  NOT AVBL

$$
WYZ002>013-054>058-071-098>099-022200-
NORTHERN WYOMING

CITY           SKY/WX    TMP DP  RH WIND       PRES   REMARKS
JACKSON        FAIR      23  16  74 S3        30.17S
CODY           FAIR      36   7  29 S9        30.10F WCI  29
GREYBULL       FAIR      38  21  50 SE10      30.15F WCI  31
WORLAND        FAIR      37  21  52 SW8       30.15F WCI  31
SHERIDAN       FAIR      39  21  48 S7        30.14F WCI  34
BUFFALO        PTSUNNY   37  19  48 SE13      30.13F WCI  29
GILLETTE       FAIR      33  20  58 W3        30.14F
HULETT         FAIR      34  27  75 SW10      30.17S WCI  26
NEWCASTLE      FAIR      34  23  64 NW3       30.18F

$$
WYZ014>020-022>026-101>103-022200-
CENTRAL WYOMING

CITY           SKY/WX    TMP DP  RH WIND       PRES   REMARKS
BIG PINEY      PTSUNNY   27  12  53 CALM      30.13F
PINEDALE       FAIR      27  12  54 MISG      30.14F
DUBOIS         FAIR      28   5  37 NW10      30.07F WCI  19
LANDER         FAIR      31  17  56 SE5       30.13F WCI  26
RIVERTON       FAIR      32  16  51 VRB5      30.14F WCI  27
CASPER         PTSUNNY   32  23  69 N5        30.14F WCI  27
DOUGLAS        FAIR      32  21  64 W3        30.15F

$$
WYZ021-027>030-104>119-022200-
SOUTHERN WYOMING

CITY           SKY/WX    TMP DP  RH WIND       PRES   REMARKS
EVANSTON       FAIR      24  12  60 NW5       30.13F WCI  18
KEMMERER         N/A     27  12  54 SW7       30.13F WCI  19
FORT BRIDGER   FAIR      25  10  53 NW5       30.17S WCI  19
ROCK SPRINGS   CLOUDY    22  14  71 SW3       30.13F
DIXON          CLOUDY    26  17  67 NW6       30.13S WCI  20
RAWLINS        CLOUDY    23  14  68 NE7       30.11F WCI  15
SARATOGA       CLOUDY    21  14  73 NW6       30.11S WCI  14
LARAMIE        LGT SNOW  22  16  78 N6        30.07F WCI  14
CHEYENNE       CLOUDY    29  18  63 SE9       30.13S WCI  20
TORRINGTON     CLOUDY    38  22  52 S3        30.17F
PINE BLUFFS    CLOUDY    32  21  64 SE7       30.17F WCI  26

$$



USA.gov is the U.S. government's official web portal to all federal, state and local government web resources and services.